Fairbanks, AK

5:06 PM AKDT on March 26, 2017 (GMT -0800)
Fairbanks International

Weather History for PAFA - September, 2013

Change the Weather History Date:

Wednesday, September 4, 2013

  Actual Average Record
Temperature  
Mean Temperature 52 °F 50 °F  
Max Temperature 61 °F 60 °F 78 °F (1917)
Min Temperature 43 °F 40 °F 24 °F (1980)
Degree Days  
Heating Degree Days 13 15  
Month to date heating degree days 50 57  
Since 1 July heating degree days 309 446  
Cooling Degree Days 0 0  
Month to date cooling degree days 0 0  
Year to date cooling degree days 226 61  
Growing Degree Days 2 (Base 50)    
Moisture  
Dew Point 45 °F    
Average Humidity 80    
Maximum Humidity 93    
Minimum Humidity 49    
Precipitation  
Precipitation 0.04 in 0.05 in 0.33 in (1960)
Month to date precipitation 0.46 0.19  
Year to date precipitation 6.26 7.76  
Snow  
Snow 0.00 in 0.00 in T in (1980)
Month to date snowfall 0.0 0.1  
Since 1 July snowfall 0.0 0.1  
Since 1 September snowfall 0.0 0.1  
Snow Depth 0.00 in    
Sea Level Pressure  
Sea Level Pressure 29.46 in    
Wind  
Wind Speed 4 mph (West)    
Max Wind Speed 13 mph    
Max Gust Speed 23 mph    
Visibility 10 miles    
Events Fog , Rain    
T = Trace of Precipitation, MM = Missing Value Source: NWS Daily Summary

Daily Weather History Graph

Daily Weather History Graph

Search for Another Location

Airport or City:

Trip Planner

Search our weather history database for the weather conditions in past years. The results will help you decide how hot, cold, wet, or windy it might be!

Date:

Astronomy

Sep. 04, 2013 Rise Set
Actual Time 6:41 AM AKDT 8:56 PM AKDT
Civil Twilight 5:48 AM AKDT 9:49 PM AKDT
Nautical Twilight 4:34 AM AKDT 11:01 PM AKDT
Astronomical Twilight 2:15 AM AKDT 1:04 AM AKDT
Moon 6:09 AM AKDT (9/4) 8:03 PM AKDT (9/4)
Length of Visible Light 16h 01m
Length of Day
14h 14m
Waning Crescent, 0% of the Moon is Illuminated
Sep 4
Waning Crescent
Sep 5
New
Sep 12
First Quarter
Sep 19
Full
Sep 26
Last Quarter

Hourly Weather History & Observations

Time (AKDT) Temp. Windchill Dew Point Humidity Pressure Visibility Wind Dir Wind Speed Gust Speed Precip Events Conditions
12:53 AM 53.1 °F - 48.9 °F 86% 29.37 in 10.0 mi WSW 8.1 mph - N/A   Mostly Cloudy
1:53 AM 52.0 °F - 46.9 °F 83% 29.38 in 10.0 mi Calm Calm - N/A   Mostly Cloudy
2:53 AM 48.0 °F - 45.0 °F 89% 29.38 in 10.0 mi SE 3.5 mph - N/A   Mostly Cloudy
3:53 AM 48.0 °F - 46.0 °F 93% 29.39 in 10.0 mi North 3.5 mph - N/A   Scattered Clouds
4:53 AM 46.0 °F 43.9 °F 44.1 °F 93% 29.39 in 10.0 mi NNE 4.6 mph - N/A   Scattered Clouds
5:53 AM 45.0 °F 43.5 °F 42.1 °F 90% 29.39 in 10.0 mi NNE 3.5 mph - N/A   Scattered Clouds
6:32 AM 44.1 °F - 42.1 °F 93% 29.38 in 10.0 mi Calm Calm - N/A Fog Patches of Fog
6:53 AM 45.0 °F - 42.1 °F 90% 29.39 in 10.0 mi Calm Calm - N/A Fog Patches of Fog
7:53 AM 46.0 °F - 43.0 °F 89% 29.39 in 10.0 mi Calm Calm - N/A   Mostly Cloudy
8:53 AM 48.9 °F - 46.0 °F 90% 29.39 in 10.0 mi Calm Calm - N/A   Mostly Cloudy
9:53 AM 50.0 °F - 46.9 °F 89% 29.39 in 10.0 mi Variable 4.6 mph - 0.00 in Rain Light Rain
10:53 AM 51.1 °F - 46.0 °F 83% 29.39 in 10.0 mi NNW 6.9 mph - 0.03 in Rain Light Rain
11:53 AM 53.1 °F - 46.9 °F 80% 29.40 in 10.0 mi South 3.5 mph - 0.00 in   Overcast
12:53 PM 53.1 °F - 48.0 °F 83% 29.45 in 10.0 mi WSW 6.9 mph - 0.00 in Rain Light Rain
1:53 PM 55.9 °F - 48.9 °F 77% 29.44 in 10.0 mi Calm Calm - 0.01 in   Mostly Cloudy
2:53 PM 59.0 °F - 48.0 °F 67% 29.47 in 10.0 mi Variable 3.5 mph - N/A   Mostly Cloudy
3:53 PM 59.0 °F - 45.0 °F 60% 29.49 in 10.0 mi Variable 4.6 mph - 0.00 in Rain Light Rain
4:53 PM 60.1 °F - 45.0 °F 57% 29.50 in 10.0 mi SW 11.5 mph - 0.00 in   Mostly Cloudy
5:53 PM 60.1 °F - 44.1 °F 55% 29.51 in 10.0 mi WSW 12.7 mph 23.0 mph N/A   Mostly Cloudy
6:53 PM 60.1 °F - 45.0 °F 57% 29.54 in 10.0 mi WSW 8.1 mph - N/A   Mostly Cloudy
7:53 PM 59.0 °F - 45.0 °F 60% 29.56 in 10.0 mi WNW 4.6 mph - N/A   Mostly Cloudy
8:53 PM 54.0 °F - 46.0 °F 75% 29.59 in 10.0 mi Calm Calm - N/A   Mostly Cloudy
9:53 PM 48.9 °F - 45.0 °F 86% 29.61 in 10.0 mi Calm Calm - N/A   Scattered Clouds
10:53 PM 48.0 °F - 44.1 °F 86% 29.65 in 10.0 mi Calm Calm - N/A   Scattered Clouds
11:53 PM 46.9 °F - 44.1 °F 90% 29.67 in 10.0 mi East 4.6 mph - N/A   Mostly Cloudy